Weather Roundup
Issued by NWS

Home | Current Version | Previous Version | Graphics & Text | Print | Product List | Glossary Off
Versions: 1 2 3 4 5 6 7 8 9 10 11 12 13 14 15 16 17 18 19 20 21 22 23 24 25 26 27 28 29 30 31 32 33 34 35 36 37 38 39 40 41 42 43 44 45 46 47 48 49 50

000
NZUS93 KARX 201510
HRRWXR

CURRENT HOURLY OBSERVATIONS ACROSS
MUCH OF THE UPPER MISSISSIPPI VALLEY
NATIONAL WEATHER SERVICE LA CROSSE WI
1000 AM CDT WED AUG 20 2014


...SOUTHEAST MINNESOTA...


CITY           SKY/WX    TMP DP  RH WIND       PRES   REMARKS
ROCHESTER      PTSUNNY   72  66  81 VRB5      29.90R
ROCHESTER/MAYO FAIR      72  63  72 S6        29.90R
WINONA         CLOUDY    66  64  94 CALM      29.89R
AUSTIN         CLOUDY    72  66  83 CALM      29.88F
ALBERT LEA     CLOUDY    73  66  78 SE5       29.87F
DODGE CENTER   PTSUNNY   72  68  88 SE3       29.89S
PRESTON        PTSUNNY   71  69  93 CALM      29.90S
OWATONNA       PTSUNNY   73  66  78 CALM      29.87F
FARIBAULT      PTSUNNY   77  64  65 S3        29.87R
$$

...ELSEWHERE IN MINNESOTA...


CITY           SKY/WX    TMP DP  RH WIND       PRES   REMARKS
MINNEAPOLIS    MOSUNNY   74  65  73 E8        29.85F
INTNL FALLS    MOSUNNY   68  61  78 VRB3      29.89S
DULUTH         PTSUNNY   66  60  81 N6        29.89S
RED WING       CLOUDY    70  64  83 SE3       29.87R
REDWOOD FALLS  CLOUDY    73  66  78 E9        29.80F
MANKATO        PTSUNNY   72  64  78 SE6       29.85F
WORTHINGTON    CLOUDY    66  10  11 S9        29.83S
FAIRMONT       CLOUDY    70  61  73 SE5       29.84S
$$

...SOUTHWEST WISCONSIN...


CITY           SKY/WX    TMP DP  RH WIND       PRES   REMARKS
LA CROSSE      CLOUDY    68  65  90 CALM      29.88R FOG
PRAIRIE DU CHI PTSUNNY   72  66  80 CALM      29.87F
BOSCOBEL       MOSUNNY   75  65  70 VRB5      29.88S
LONE ROCK      SUNNY     77  65  66 CALM      29.88R
PLATTEVILLE    SUNNY     74  67  80 CALM      29.90R
FORT MC COY    CLOUDY    65  65  98 CALM      29.89R
CAMP DOUGLAS   PTSUNNY   66  66 100 VRB1      29.88S
VIROQUA        FAIR      75  65  70 SW5       29.90R
WIS DELLS      SUNNY     73  63  69 CALM      29.88R
$$

...ELSEWHERE IN WISCONSIN...


CITY           SKY/WX    TMP DP  RH WIND       PRES   REMARKS
MILWAUKEE      MOSUNNY   76  63  64 W9        29.86S
MADISON        MOSUNNY   76  64  66 VRB5      29.88R
GREEN BAY      CLOUDY    66  61  84 NW7       29.86R
EAU CLAIRE     CLOUDY    63  61  93 CALM      29.90S
BLACK RVR FLS  FAIR      66  65  96 CALM      29.87F
MEDFORD        CLOUDY    62  59  91 CALM      29.91R
WAUSAU         CLOUDY    64  59  83 VRB3      29.87R
WIS RAPIDS     CLOUDY    65  61  87 NW7       29.90R
MARSHFIELD     CLOUDY    61  59  93 W5        29.90R FOG
RICE LAKE      CLOUDY    65  60  83 S3        29.92R
$$

...NORTHEAST IOWA...


CITY           SKY/WX    TMP DP  RH WIND       PRES   REMARKS
WATERLOO       CLOUDY    71  65  81 SW3       29.88S
DUBUQUE        CLOUDY    73  66  78 W9        29.91R
DECORAH        CLOUDY    72  68  88 CALM      29.88F
MASON CITY     CLOUDY    72  66  81 S3        29.90S
CHARLES CITY   CLOUDY    70  66  88 CALM      29.90R
OELWEIN        CLOUDY    72  66  83 CALM      29.91S
$$

...ELSEWHERE IN IOWA...


CITY           SKY/WX    TMP DP  RH WIND       PRES   REMARKS
DES MOINES     TSTM      68  64  87 W5        29.93F FOG
IOWA CITY      CLOUDY    69  67  93 CALM      29.94R
FORT DODGE     CLOUDY    68  66  94 SW6       29.86S
MARSHALLTOWN   CLOUDY    68  67  96 S6        29.91R
CEDAR RAPIDS   CLOUDY    67  66  97 SW6       29.93R
$$

...NORTHERN ILLINOIS...


CITY           SKY/WX    TMP DP  RH WIND       PRES   REMARKS
CHICAGO-OHARE  MOSUNNY   78  61  55 W5        29.88R
DUPAGE         SUNNY     78  65  63 SW3       29.88R
CHICAGO-MIDWAY MOSUNNY   80  66  62 W5        29.89R
MOLINE         CLOUDY    74  66  76 SW5       29.90R
ROCKFORD       PTSUNNY   78  65  63 W6        29.90R
STERLING       PTSUNNY   79  66  65 W10       29.91R
PEORIA         CLOUDY    74  68  81 SW10      29.97R
$$

NOTE: "FAIR" INDICATES FEW OR NO CLOUDS BELOW 12,000 FEET WITH NO
SIGNIFICANT WEATHER AND/OR OBSTRUCTIONS TO VISIBILITY. WIND
SPEEDS ARE IN MILES-PER-HOUR.



USA.gov is the U.S. government's official web portal to all federal, state and local government web resources and services.